Location: Bourg-d�Oueil
(42.8588°N, 0.4991°E)
Time: 16:57:34
(UTC+00:00)

Tiangong - Pass Details

Date: 28 November 2022
Orbit: 383 x 386 km, 41.5° (Epoch: 30 January)

Event Time Altitude Azimuth Distance (km) Brightness Sun altitude
Rises 18:55:31 0° 230° (SW) 2,254 2.6 -26.9°
Reaches altitude 10° 18:57:45 10° 218° (SW) 1,406 1.2 -27.3°
Enters shadow 18:57:51 11° 217° (SW) 1,369 1.1 -27.3°
